Peachtree City, GA

3:43 AM EST on November 23, 2017 (GMT -0500)
Peachtree City-Falcon

Weather History for KFFC - March, 2013

Change the Weather History Date:

Friday, March 1, 2013

  Actual Average Record
Temperature  
Mean Temperature 42 °F 50 °F  
Max Temperature 46 °F 63 °F 80 °F (2017)
Min Temperature 37 °F 37 °F 15 °F (2002)
Degree Days  
Heating Degree Days 24 15  
Month to date heating degree days 15  
Since 1 July heating degree days 2397  
Cooling Degree Days 0 0  
Month to date cooling degree days 0  
Year to date cooling degree days 0  
Moisture  
Dew Point 26 °F    
Average Humidity 57    
Maximum Humidity 70    
Minimum Humidity 46    
Precipitation  
Precipitation 0.00 in 0.17 in 1.56 in (2007)
Month to date precipitation 0.17  
Year to date precipitation 9.27  
Snow  
Snow 0.00 in - - ()
Month to date snowfall  
Since 1 July snowfall  
Snow Depth -    
Sea Level Pressure  
Sea Level Pressure 30.01 in    
Wind  
Wind Speed 9 mph (NW)    
Max Wind Speed 13 mph    
Max Gust Speed 20 mph    
Visibility 8 miles    
Events      
T = Trace of Precipitation, MM = Missing Value Source: NWS Daily Summary

Daily Weather History Graph

Daily Weather History Graph

Search for Another Location

Airport or City:

Trip Planner

Search our weather history database for the weather conditions in past years. The results will help you decide how hot, cold, wet, or windy it might be!

Date:

Astronomy

Mar. 01, 2013 Rise Set
Actual Time 7:06 AM EST 6:35 PM EST
Civil Twilight 6:41 AM EST 7:00 PM EST
Nautical Twilight 6:12 AM EST 7:29 PM EST
Astronomical Twilight 5:43 AM EST 7:57 PM EST
Moon 10:51 PM EST (3/1) 9:07 AM EST (3/1)
Length of Visible Light 12h 18m
Length of Day
11h 29m
Waning Gibbous, 83% of the Moon is Illuminated
Mar 1
Waning Gibbous
Mar 4
Last Quarter
Mar 11
New
Mar 19
First Quarter
Mar 27
Full

Hourly Weather History & Observations

Time (EST) Temp. Windchill Dew Point Humidity Pressure Visibility Wind Dir Wind Speed Gust Speed Precip Events Conditions
12:53 AM 37.9 °F 30.9 °F 26.1 °F 62% 30.01 in 9.0 mi NW 10.4 mph 16.1 mph N/A   Overcast
1:53 AM 37.9 °F 30.5 °F 25.0 °F 60% 30.01 in 8.0 mi NNW 11.5 mph - N/A   Overcast
2:53 AM 37.0 °F 31.6 °F 24.1 °F 59% 30.01 in 9.0 mi North 6.9 mph - N/A   Overcast
3:53 AM 37.0 °F 31.0 °F 25.0 °F 62% 30.01 in 9.0 mi NW 8.1 mph - N/A   Overcast
4:53 AM 37.0 °F 31.6 °F 24.1 °F 59% 30.01 in 9.0 mi WNW 6.9 mph - N/A   Overcast
7:53 AM 37.0 °F 31.6 °F 24.1 °F 59% 30.02 in 9.0 mi WNW 6.9 mph 17.3 mph N/A   Mostly Cloudy
9:53 AM 39.9 °F 32.9 °F 25.0 °F 55% 30.04 in 9.0 mi NNW 11.5 mph - N/A   Overcast
10:53 AM 41.0 °F 33.9 °F 26.1 °F 55% 30.04 in 9.0 mi NW 12.7 mph - N/A   Overcast
11:53 AM 41.0 °F 35.2 °F 26.1 °F 55% 30.04 in 9.0 mi NW 9.2 mph - N/A   Overcast
12:53 PM 43.0 °F 36.8 °F 26.1 °F 51% 30.02 in 9.0 mi NNW 11.5 mph - N/A   Overcast
1:53 PM 46.0 °F 41.9 °F 26.1 °F 46% 29.99 in 10.0 mi NW 8.1 mph 16.1 mph N/A   Mostly Cloudy
2:53 PM 46.0 °F 41.9 °F 26.1 °F 46% 29.97 in 10.0 mi NNW 8.1 mph - N/A   Overcast
3:53 PM 45.0 °F 39.3 °F 26.1 °F 48% 29.98 in 10.0 mi WNW 11.5 mph - N/A   Overcast
4:53 PM 43.0 °F 37.7 °F 26.1 °F 51% 29.99 in 3.0 mi WNW 9.2 mph 19.6 mph N/A   Haze
5:53 PM 42.1 °F 36.1 °F 27.0 °F 55% 30.00 in 4.0 mi NW 10.4 mph 17.3 mph N/A   Haze
6:53 PM 42.1 °F 36.6 °F 27.0 °F 55% 30.01 in 7.0 mi WNW 9.2 mph 17.3 mph N/A   Overcast
7:53 PM 41.0 °F 37.1 °F 27.0 °F 57% 30.03 in 8.0 mi WNW 5.8 mph - N/A   Overcast
8:53 PM 41.0 °F 37.1 °F 28.0 °F 60% 30.03 in 8.0 mi WNW 5.8 mph - N/A   Overcast
9:53 PM 39.9 °F 34.5 °F 28.9 °F 65% 30.04 in 7.0 mi WNW 8.1 mph - N/A   Overcast
10:53 PM 39.0 °F 34.0 °F 30.0 °F 70% 30.04 in 7.0 mi WNW 6.9 mph - N/A   Overcast
11:53 PM 37.9 °F 31.5 °F 28.9 °F 70% 30.02 in 8.0 mi WNW 9.2 mph - N/A   Overcast